Voltar ao catálogo

STARLINK-36525

AtivoComunicaçõesVLEO
NORAD 67450·PAYLOAD·🇺🇸 United States

Lançado Jan 14, 2026 de Cape Canaveral Space Force Station

Loading…

Próximas Passagens (próximas 24 horas)

TLE

AtualizadoSource: CelesTrak SupGP

Época: Sep 14, 2026, 21:07 UTC

1 67450C 26008F   26257.88034722  .00030452  00000+0  11016-2 0  2575
2 67450  43.0029 216.8710 0001087 260.8858 162.8740 15.27603613    13

Acompanhe STARLINK-36525 em tempo real com AllMySat

Download on the App Store